Miscellaneous Local Product
Issued by NWS North Platte, NE

Home | Current Version | Previous Version | Text Only | Print | Product List | Glossary On
Versions: 1 2 3 4 5 6 7 8 9 10 11 12 13 14 15 16 17 18 19 20 21 22 23 24 25 26 27 28 29 30 31 32 33 34 35 36 37 38 39 40 41 42 43 44 45 46 47 48 49 50
000
AXUS43 KLBF 251810
MISLBF


WESTERN AND NORTH CENTRAL NEBRASKA HOURLY WEATHER ROUNDUP
NATIONAL WEATHER SERVICE NORTH PLATTE NE
1200 PM CST SUN JAN 25 2015

***STATIONS NOT REPORTING VARIABLES SUCH AS SKY/WEATHER OR
PRESSURE ARE PROVIDED BY THE NEBRASKA DEPARTMENT OF
ROADS...RAWS...AND APRS NETWORKS...AND ARE NOT UNDER
NATIONAL WEATHER SERVICE QUALITY CONTROL***

...OBSERVATIONS IN AND NEAR THE EASTERN PANHANDLE OF NEBRASKA...

CITY           SKY/WX    TMP DP  RH WIND       PRES   REMARKS
PINE RIDGE     SUNNY     42  29  59 W7        30.07F
CHADRON        MOSUNNY   45  29  53 W18       30.07F
ALLIANCE       MOSUNNY   43  31  62 W20       30.08F
SIDNEY         CLOUDY    47  31  53 NW16G23   30.13F
$$

...OBSERVATIONS IN NORTH CENTRAL NEBRASKA...

CITY           SKY/WX    TMP DP  RH WIND       PRES   REMARKS
VALENTINE      CLOUDY    37  28  70 NW16G24   30.07S WCI  28
THEDFORD       MOSUNNY   42  29  58 NW23G29   30.08R
AINSWORTH      CLOUDY    37  29  74 NW16G22   30.07R WCI  27
O`NEILL        CLOUDY    38  35  90 NW12      30.04S WCI  30
ORD            CLOUDY    39  30  70 N16       30.05R WCI  30
BROKEN BOW     PTSUNNY   44  30  57 N21       30.05R
$$

...OBSERVATIONS IN SOUTHWEST NEBRASKA AND FAR NORTHEAST COLORADO...

CITY           SKY/WX    TMP DP  RH WIND       PRES   REMARKS
WRAY           CLOUDY    51  28  41 NW20G30   30.14S
HOLYOKE        FAIR      54  30  40 NW18G29   30.13S
IMPERIAL       SUNNY     49  26  41 N22       30.10F
OGALLALA       SUNNY     47  28  46 NW14G20   30.10F
NORTH PLATTE   SUNNY     46  26  45 NW23      30.09S
MCCOOK         SUNNY     49  23  36 NW30G40   30.10R
LEXINGTON      MOSUNNY   45  30  56 N25       30.07F
$$

...NORTH PLATTE AREA...

CITY           SKY/WX    TMP DP  RH WIND       PRES   REMARKS
AIRPORT        SUNNY     46  26  45 NW23      30.09S
$$

...SOME WEATHER OBSERVATIONS FROM AROUND THE REGION...

CITY           SKY/WX    TMP DP  RH WIND       PRES   REMARKS
DENVER         PTSUNNY   54  25  32 W8        30.17S
LARAMIE        PTSUNNY   42  26  53 W18G25    30.21R
CHEYENNE       PTSUNNY   47  26  44 NW16G38   30.15R
SCOTTSBLUFF    CLOUDY    43  33  68 W16       30.11F
RAPID CITY     SUNNY     45  18  34 S3        30.04S
PIERRE         CLOUDY    40  31  70 NW14      30.04S WCI  32
WINNER         CLOUDY    39  32  76 NW16      30.05S WCI  30
SIOUX FALLS    CLOUDY    34  31  88 N8        30.01R WCI  27
OMAHA          CLOUDY    39  33  79 N20G26    29.96R WCI  29
GRAND ISLAND   CLOUDY    40  31  70 N21       30.04R WCI  30
KANSAS CITY    CLOUDY    37  34  89 N21G32    29.81R WCI  26
WICHITA        PTSUNNY   51  29  42 NW32G44   29.98R
HAYS           MOSUNNY   48  25  40 N23G38    30.08R
LIBERAL        SUNNY     52  28  40 NW23      30.18S
GOODLAND       SUNNY     50  26  39 NW23G38   30.12S
$$



USA.gov is the U.S. government's official web portal to all federal, state and local government web resources and services.